Theta_e
341 342 343 343 345 346 345 345 344 344 341 342 345 347 347 349 352 352 351 351 349 350 350 350 348 349 348 349 350 349 347 343 340 342 346 351 352 352 354 354 352 356 355
342 342 343 343 345 344 343 344 345 343 342 341 341 343 346 347 351 349 350 353 349 348 348 349 349 347 349 350 348 349 347 348 343 342 346 349 350 353 353 351 350 352 355
342 342 343 343 344 344 343 344 344 343 341 339 340 343 346 346 349 348 349 350 350 351 349 349 349 349 350 348 347 348 347 350 348 346 345 347 350 352 351 348 347 350 347
344 343 343 344 345 345 345 344 344 344 343 340 342 346 345 346 349 349 349 350 350 351 351 351 351 350 349 350 348 350 348 347 347 344 344 345 347 350 347 343 343 346 338
343 344 344 346 347 347 346 345 345 344 343 343 342 346 346 344 341 341 344 347 346 347 349 350 348 348 341 344 350 349 348 345 344 344 343 344 345 341 340 341 342 344 341
343 344 345 345 346 346 346 346 346 346 344 343 346 345 340 334 326 331 335 342 345 346 347 346 343 341 339 335 336 337 346 346 345 344 344 342 340 339 338 336 339 341 333
340 341 343 345 344 343 345 345 345 345 343 344 341 336 331 330 321 324 327 336 340 344 346 342 335 331 334 335 328 326 326 327 336 346 343 340 338 338 336 336 338 338 325
339 340 341 341 341 342 343 342 342 344 339 339 336 333 329 327 319 319 324 332 337 337 340 335 331 332 333 334 327 324 325 327 329 327 333 332 332 333 336 337 339 338 331
337 338 340 341 340 340 340 339 341 341 341 338 335 330 328 325 319 320 329 332 326 327 328 329 331 330 321 324 330 324 324 322 318 318 318 317 317 319 327 334 327 329 327
336 338 340 340 339 339 338 338 337 338 336 332 327 326 324 324 316 317 327 329 324 321 321 320 319 321 316 316 321 322 322 320 320 318 317 317 318 317 316 322 325 323 320
336 338 338 338 339 339 337 335 332 329 324 322 319 318 315 315 318 316 321 326 323 319 317 315 315 312 310 311 313 324 321 318 315 314 313 314 313 313 312 311 312 314 310
328 329 333 336 337 335 331 327 324 324 318 317 317 315 312 313 312 316 318 317 319 317 314 314 314 308 307 309 313 310 310 314 313 312 310 310 308 308 307 307 308 308 307
320 319 318 318 319 324 328 325 321 319 316 313 313 308 309 311 311 310 311 313 314 314 315 312 308 305 306 309 310 311 312 310 307 306 306 306 306 307 308 307 307 307 306
315 314 314 315 314 314 313 314 315 320 321 319 316 314 312 310 308 309 309 312 311 314 313 313 310 308 308 308 310 309 307 307 308 307 306 305 305 303 303 304 303 302 300
314 313 312 312 309 307 304 305 306 301 304 313 314 315 310 307 300 298 301 304 304 305 309 308 307 307 306 307 307 308 308 307 306 305 304 302 301 301 300 301 299 299 298
311 310 310 308 307 307 307 303 302 301 302 298 298 304 301 299 296 295 294 294 296 298 309 308 306 306 306 306 306 305 305 303 303 303 302 301 300 299 299 299 299 297 296
306 311 309 308 305 303 302 303 301 297 297 295 295 295 298 298 295 293 293 294 295 298 307 308 307 306 304 303 303 304 302 301 302 301 300 300 299 298 298 297 297 296 295
304 304 309 310 308 306 305 301 300 301 298 297 295 295 294 294 293 293 293 297 300 300 303 305 304 304 304 303 302 301 299 299 299 299 299 299 298 297 296 295 296 295 295
302 303 303 303 304 305 305 307 304 303 303 300 298 296 295 293 293 293 294 301 302 303 305 305 304 304 303 303 303 301 299 298 298 298 297 297 297 297 295 296 295 294 294
305 306 303 301 300 301 302 301 302 303 302 300 298 297 298 299 300 303 303 304 303 302 305 305 305 305 304 304 302 300 300 298 297 297 297 297 297 297 295 295 295 295 296
305 303 303 300 301 300 300 300 300 300 301 301 300 299 295 299 299 303 302 303 305 305 305 305 305 304 303 303 302 300 299 298 298 297 296 296 295 295 296 295 296 296 296
305 304 302 301 300 300 300 300 300 300 300 301 301 300 296 299 302 302 302 303 305 306 306 306 305 304 304 303 302 300 299 297 296 296 296 296 295 295 295 294 295 295 295
307 306 304 302 302 301 300 300 300 300 300 300 301 300 300 301 300 301 301 303 306 306 306 306 306 304 304 304 302 301 299 298 298 297 296 296 295 295 295 294 295 294 295
309 308 306 304 303 302 301 301 300 298 301 301 302 301 301 301 301 302 302 302 305 306 306 306 306 304 303 303 303 302 301 300 299 298 297 296 295 294 295 294 294 294 294
311 309 307 306 306 305 303 303 302 301 301 301 302 302 302 302 301 301 301 301 304 305 304 305 305 304 303 302 302 302 296 290 297 294 297 297 296 295 294 294 295 295 294
311 310 309 308 307 306 305 305 306 305 304 303 302 302 303 302 302 302 302 300 302 303 304 303 303 304 303 302 302 296 287 287 293 289 297 297 296 294 294 294 294 295 295
Wind_Speed
10 10 8 7 5 5 5 5 5 4 4 4 5 4 5 5 5 5 5 4 4 3 3 4 4 2 2 2 2 2 2 3 2 2 2 1 3 4 6 6 7 7 7
11 9 10 7 6 6 5 5 5 5 5 5 5 4 5 5 4 5 5 4 6 5 5 5 5 3 3 3 2 3 2 2 3 3 1 1 1 3 3 5 5 7 7
10 10 9 9 8 9 7 6 5 5 6 4 5 5 5 5 4 5 5 4 5 5 4 5 5 5 4 4 4 3 2 2 2 1 2 1 1 2 2 4 5 7 7
11 11 12 11 11 10 8 8 6 5 4 4 4 4 5 5 5 5 5 5 5 5 5 4 4 6 6 5 4 4 3 2 2 1 1 1 1 2 2 2 3 5 7
11 11 12 11 9 8 7 7 6 5 5 4 4 4 3 3 1 3 4 5 5 5 2 3 1 2 3 5 3 4 3 2 1 1 1 0 0 1 2 2 1 1 5
7 10 7 7 9 10 8 7 7 7 6 5 5 4 4 2 1 2 5 6 5 4 4 3 4 5 4 3 4 5 5 5 3 2 1 1 1 1 0 0 1 2 2
2 3 4 6 7 9 9 7 7 7 7 7 6 4 4 3 2 6 8 3 4 4 5 3 2 1 2 2 7 10 8 7 2 3 3 3 2 3 1 1 1 2 2
0 1 2 3 4 6 6 7 5 5 5 4 4 7 5 4 2 2 8 3 1 1 2 4 2 1 1 3 3 4 4 5 1 2 1 0 2 2 3 1 2 5 4
2 3 3 4 8 5 5 7 5 4 5 5 4 6 5 5 3 4 2 3 3 3 3 4 4 3 2 1 2 5 6 7 9 12 11 9 11 9 3 4 3 3 2
6 6 5 4 6 7 6 4 3 3 3 5 4 4 1 3 2 2 4 3 3 2 3 4 4 4 4 4 5 4 5 3 4 4 5 8 11 11 15 8 1 3 3
0 3 4 7 7 7 5 3 4 5 5 5 6 4 2 2 2 4 9 4 4 4 2 2 1 4 6 6 3 2 2 6 7 6 6 6 7 8 8 9 9 5 4
5 5 3 3 5 6 7 6 7 5 7 4 2 4 3 1 4 2 8 5 6 4 4 3 2 7 8 8 6 9 10 6 4 5 5 5 6 7 7 8 10 10 10
9 8 7 8 8 8 4 9 7 5 6 4 2 3 3 3 5 10 8 7 7 4 3 5 9 8 10 9 9 8 6 4 4 3 3 3 3 3 5 7 8 9 10
10 9 9 7 9 9 7 7 6 4 4 4 4 3 2 3 4 4 4 4 8 5 9 4 7 9 11 5 5 5 4 3 4 4 5 5 4 3 3 2 2 3 4
9 7 8 7 8 8 9 7 6 6 4 3 3 2 3 3 3 4 4 3 3 3 4 2 2 3 3 4 4 4 4 4 5 4 5 5 5 4 4 3 4 5 5
7 6 5 6 5 5 6 5 9 8 6 9 9 3 4 8 6 8 8 8 6 3 1 1 1 2 4 3 4 4 4 5 4 5 5 5 5 5 5 4 5 5 6
5 4 4 5 4 4 3 3 4 3 5 6 7 7 5 8 5 3 4 5 5 1 2 2 3 4 4 4 3 5 4 3 4 4 5 4 4 5 5 4 4 5 5
6 8 3 3 3 3 4 3 3 3 3 2 5 3 5 3 4 3 2 4 2 2 1 2 3 4 3 4 3 4 6 6 5 5 5 4 4 4 5 4 3 4 4
4 3 4 4 3 3 4 2 2 3 3 2 2 2 1 3 1 1 3 1 1 1 4 3 2 5 3 4 4 4 3 4 5 6 6 4 5 4 4 4 5 5 4
3 6 4 3 3 3 3 2 2 3 3 2 1 1 2 1 1 1 1 1 2 2 2 4 5 5 6 6 5 5 5 5 5 4 5 5 4 5 5 5 4 4 3
2 2 4 3 2 2 2 3 2 2 2 2 2 1 1 1 1 1 2 3 2 2 3 4 4 5 4 4 5 5 6 5 5 6 6 4 5 6 5 4 4 3 2
2 2 1 2 2 1 1 1 1 0 0 1 0 1 3 1 1 1 2 3 3 2 3 5 5 5 6 7 7 6 6 6 6 6 5 5 4 4 4 5 4 4 3
4 4 3 2 2 3 2 2 2 1 1 2 2 2 2 3 3 3 3 2 2 3 4 6 6 6 5 6 6 7 8 7 7 7 6 6 5 5 5 5 4 3 3
6 6 5 4 3 3 3 3 2 4 4 3 3 3 3 3 4 5 5 3 3 5 5 5 5 7 7 6 6 6 5 5 6 7 8 7 6 6 5 4 4 4 3
4 4 4 4 4 4 3 3 4 4 5 5 5 5 5 4 5 5 5 5 5 6 8 7 6 8 10 11 10 10 8 10 9 8 6 7 7 7 5 4 4 3 4
3 4 3 3 3 3 4 4 4 3 4 4 5 5 5 5 6 6 5 6 6 7 8 7 8 11 12 10 11 11 9 11 9 7 7 6 6 5 5 5 6 4 5
Wind_Direction
190 192 189 202 207 204 206 210 204 190 207 223 215 195 232 236 240 207 214 213 224 235 227 227 250 249 268 263 221 212 191 187 235 280 252 302 26 19 21 7 14 27 36
196 190 196 193 190 208 214 215 189 206 212 216 228 239 207 233 238 217 213 211 210 213 214 216 231 227 249 229 231 229 225 204 223 263 298 306 345 3 6 18 27 47 47
182 193 190 197 195 204 209 204 200 202 204 214 206 233 236 218 226 235 225 238 235 241 232 220 215 196 213 218 226 230 224 208 214 220 301 308 315 11 6 36 30 25 46
187 189 196 197 202 202 204 201 200 208 198 204 227 237 243 241 244 236 229 219 224 216 207 234 230 207 207 206 211 201 195 214 237 223 235 317 326 360 50 30 57 47 40
196 195 207 200 195 193 196 202 196 193 208 197 209 233 223 205 194 277 272 247 240 235 186 200 188 262 243 229 198 203 173 193 195 233 242 146 338 16 36 357 41 8 61
212 220 200 188 187 195 198 203 199 199 186 185 202 201 185 126 307 258 277 272 261 263 250 219 162 154 140 123 204 232 172 179 186 192 210 215 250 224 121 23 331 129 101
196 231 230 206 202 207 206 180 193 189 167 185 156 156 188 154 79 275 260 256 285 255 248 196 199 34 326 108 95 89 71 63 53 179 194 205 217 191 178 159 111 69 67
42 322 212 250 208 229 194 192 165 156 183 176 173 163 194 153 149 27 271 239 199 238 196 162 174 176 328 224 139 98 66 28 317 198 221 186 245 212 217 84 85 109 127
183 282 283 234 220 219 210 155 151 162 179 165 189 178 193 181 109 50 201 131 126 165 169 158 157 141 344 271 229 116 102 78 63 73 83 76 65 54 116 156 142 164 140
158 191 225 217 203 189 164 149 115 126 134 122 116 107 192 175 356 355 206 132 134 124 36 47 43 122 121 173 181 171 144 137 129 87 49 43 47 47 41 39 120 118 116
71 203 204 211 181 149 133 103 109 104 106 110 115 99 67 314 287 230 204 159 162 144 180 175 124 81 87 88 114 146 108 125 98 93 88 75 61 57 52 51 40 73 104
72 50 82 82 107 111 110 95 97 102 94 86 139 152 100 64 2 163 168 155 136 143 157 166 108 81 68 60 78 99 90 94 98 90 81 69 68 71 69 68 66 69 69
50 45 45 58 38 34 88 115 112 114 116 137 145 76 72 30 34 33 69 96 111 109 98 87 99 92 87 72 70 80 99 109 92 88 87 77 58 94 96 92 87 79 68
56 48 35 39 60 41 45 52 57 64 134 143 126 125 132 63 33 29 36 52 53 59 110 89 85 79 70 73 64 44 49 58 94 111 99 88 66 51 59 26 81 63 70
77 67 63 48 54 67 53 32 63 49 8 48 52 86 111 83 73 43 27 69 39 37 84 75 94 86 100 94 85 77 80 92 105 106 105 103 94 88 61 48 80 83 80
68 74 79 78 67 74 86 76 49 62 49 54 63 54 78 76 87 64 43 14 33 29 81 67 64 111 124 119 116 97 77 91 91 105 107 108 104 101 95 76 79 87 85
53 74 84 88 106 106 104 117 116 101 107 106 93 90 95 144 125 106 53 37 98 52 283 177 164 170 160 155 153 137 118 98 100 99 104 99 97 96 98 94 97 100 96
74 61 71 54 56 89 92 96 105 103 115 126 64 84 91 130 152 100 344 159 121 147 352 231 153 143 170 143 159 144 145 140 120 119 111 110 108 112 107 101 91 96 80
47 50 69 79 60 64 64 45 55 67 80 83 79 97 100 97 352 287 289 325 251 249 182 190 111 131 171 147 149 149 139 136 136 136 129 131 131 135 127 125 119 109 116
59 79 77 68 59 67 80 95 99 117 145 158 128 98 124 82 86 49 17 289 259 260 212 156 145 157 158 162 154 152 156 149 141 135 129 144 147 148 143 148 150 137 127
111 61 85 58 53 42 37 48 51 39 25 8 343 318 228 103 150 202 338 319 294 215 165 141 135 142 149 157 173 178 176 164 161 152 152 165 166 154 148 146 144 147 144
175 177 169 140 127 151 153 147 111 81 314 262 276 280 225 215 209 261 279 292 282 237 184 153 159 176 181 180 182 174 174 173 166 165 167 165 175 156 160 155 171 157 153
191 199 196 197 191 168 183 208 209 210 245 256 271 265 233 233 231 249 266 296 244 209 192 187 180 184 190 189 188 182 181 185 182 173 171 172 179 173 175 172 176 176 172
196 201 200 205 206 217 218 224 245 247 248 253 250 251 259 253 243 245 256 261 223 216 208 209 203 199 186 188 188 192 194 179 172 178 175 175 181 177 180 183 188 187 190
204 209 206 210 217 224 232 241 241 241 251 254 248 240 239 246 253 248 254 239 223 206 210 210 210 206 199 193 193 193 180 160 173 168 178 180 182 184 193 200 194 198 207
204 220 230 227 235 227 223 239 252 261 262 254 250 250 253 246 242 250 250 243 219 219 213 210 213 209 199 202 202 189 170 177 171 170 173 183 182 186 198 209 210 218 226